Location: Newark
(48.8833°N, 0.9236°W)
Time: 13:48:37
(UTC+00:00)

deb Explorer IX - Visible Passes

Search period start: 15 November 2019 00:00
Search period end: 25 November 2019 00:00
Orbit: 546 x 1105 km, 38.8° (Epoch: 14 November)

Date Brightness Start Highest point End Pass type
(mag) Time Alt. Az. Time Alt. Az. Time Alt. Az.
15 Nov ? 03:48:16 17° SE 03:48:16 17° SE 03:49:49 10° ESE visible
15 Nov ? 05:29:39 16° SW 05:32:13 23° S 05:35:45 10° SE visible
16 Nov ? 03:27:33 12° ESE 03:27:33 12° ESE 03:28:04 10° ESE visible
16 Nov ? 05:08:56 21° SSW 05:10:19 24° S 05:13:59 10° SE visible
17 Nov ? 04:48:12 25° SSW 04:48:23 25° S 04:52:12 10° SE visible
17 Nov ? 06:32:06 10° SW 06:34:15 13° SSW 06:36:18 10° S visible
18 Nov ? 04:27:27 24° S 04:27:27 24° S 04:30:25 10° SE visible
18 Nov ? 06:10:00 10° SW 06:12:20 13° SSW 06:14:32 10° S visible
19 Nov ? 04:06:44 19° SSE 04:06:44 19° SSE 04:08:38 10° SE visible
19 Nov ? 05:48:07 11° SW 05:50:24 14° SSW 05:52:45 10° S visible
20 Nov ? 03:46:01 14° SE 03:46:01 14° SE 03:46:50 10° SE visible
20 Nov ? 05:27:24 13° SW 05:28:27 14° SSW 05:30:59 10° S visible
21 Nov ? 05:06:43 15° SSW 05:06:43 15° SSW 05:09:12 10° S visible
22 Nov ? 04:46:04 14° S 04:46:04 14° S 04:47:25 10° S visible
23 Nov ? 04:25:28 10° S 04:25:28 10° S 04:25:37 10° S visible
